SES-21

Last updated on Tue Oct 15 2024 00:02:42 GMT+0000 (Coordinated Universal Time)

1 53961U 22123B 24287.66658588 .00000068 00000+0 00000+0 0 9991 2 53961 0.0130 75.1863 0001049 125.0400 291.4644 1.00270931 1099
UTC large
Height (km)
Speed (km/s)
/
Latitude / Longitude
Inclination (degrees)
Orbital Period (minutes)
Azimuth
Elevation
Range (km)
Doppler Factor

Next 0 passes for location: London (51.5072 / 0.1276)

Sorry there are no passes over London.